DW2770 Weather Reports


Display with metric or nautical units.
time (UTC)temp
F
wind
direction
speed
MPH
gust
MPH
rain 1hr
in
rain 24hr
in
rain mn
in
humidity
%
barometer
mb
20260901060002 82 86 0.0 2.0 0.00 0.00 0.00 70 1016.7
20260901054503 81 31 0.0 4.0 0.00 0.00 0.00 73 1016.6
20260901053005 79 171 1.0 5.0 0.00 0.00 0.00 74 1016.6
20260901051504 79 203 1.0 5.0 0.00 0.00 0.00 75 1016.5
20260901050013 79 360 2.0 6.0 0.00 0.00 0.00 75 1016.3
20260901044506 78 202 3.0 5.0 0.00 0.00 0.00 75 1016.3
20260901043006 79 178 0.0 4.0 0.00 0.00 0.00 75 1016.3
20260901041504 79 182 0.0 3.0 0.00 0.00 0.00 74 1016.2
20260901040011 80 28 0.0 1.0 0.00 0.00 0.00 73 1016.2
20260901034516 79 248 0.0 6.0 0.00 0.00 0.00 75 1016.0
20260901033004 79 166 0.0 5.0 0.00 0.00 0.00 74 1016.0
20260901031508 78 197 4.0 8.0 0.00 0.00 0.00 75 1016.1
20260901030013 78 186 4.0 6.0 0.00 0.00 0.00 76 1016.1
20260901024516 78 188 3.0 7.0 0.00 0.00 0.00 75 1016.2
20260901023020 78 188 3.0 8.0 0.00 0.00 0.00 75 1016.2
20260901021505 78 184 4.0 8.0 0.00 0.00 0.00 75 1016.3
20260901020008 78 184 2.0 4.0 0.00 0.00 0.00 75 1016.4
20260901014512 78 189 2.0 6.0 0.00 0.00 0.00 75 1016.6
20260901013019 78 173 1.0 5.0 0.00 0.00 0.00 74 1016.7
20260901011523 79 190 3.0 5.0 0.00 0.00 0.00 74 1016.8
20260901010005 79 192 4.0 5.0 0.00 0.00 0.00 75 1016.6
20260901004510 78 189 1.0 5.0 0.00 0.00 0.00 76 1016.6
20260901003015 78 170 0.0 7.0 0.00 0.00 0.00 75 1016.6
20260901000028 78 194 1.0 6.0 0.00 0.00 0.00 76 1016.7
20260831234517 78 192 4.0 7.0 0.00 0.00 0.00 76 1016.6
20260831233013 78 207 3.0 6.0 0.00 0.00 0.00 77 1016.7
20260831231518 78 176 3.0 5.0 0.00 0.00 0.00 78 1016.8
20260831230025 78 205 3.0 5.0 0.00 0.00 0.00 78 1016.9
20260831224532 78 193 3.0 5.0 0.00 0.00 0.00 77 1016.6
20260831223008 79 184 1.0 4.0 0.00 0.00 0.00 77 1016.5
20260831220029 79 182 2.0 6.0 0.00 0.00 0.00 76 1016.4
20260831214540 79 180 3.0 6.0 0.00 0.00 0.00 76 1016.5
20260831213040 80 188 3.0 6.0 0.00 0.00 0.00 76 1016.4
20260831211512 80 184 1.0 5.0 0.00 0.00 0.00 76 1016.4
20260831210018 80 134 0.0 3.0 0.00 0.00 0.00 76 1016.3
20260831204529 80 186 0.0 2.0 0.00 0.00 0.00 75 1016.1
20260831203043 80 184 0.0 3.0 0.00 0.00 0.00 75 1016.1
20260831201517 81 210 1.0 4.0 0.00 0.00 0.00 74 1016.1
20260831200020 81 200 0.0 2.0 0.00 0.00 0.00 74 1016.1
20260831194523 81 169 0.0 0.0 0.00 0.00 0.00 74 1016.1
20260831193028 81 188 0.0 0.0 0.00 0.00 0.00 73 1016.0
20260831191534 82 57 0.0 0.0 0.00 0.00 0.00 73 1015.9
20260831190017 82 352 0.0 1.0 0.00 0.00 0.00 73 1015.8
20260831184518 82 24 0.0 4.0 0.00 0.00 0.00 73 1015.7
20260831183027 82 77 0.0 2.0 0.00 0.00 0.00 73 1015.6
20260831181533 82 71 0.0 3.0 0.00 0.00 0.00 72 1015.5
20260831180035 83 82 1.0 7.0 0.00 0.00 0.00 72 1015.5
20260831174518 83 117 2.0 7.0 0.00 0.00 0.00 72 1015.5
20260831173019 83 75 1.0 4.0 0.00 0.00 0.00 71 1015.5
20260831171527 84 77 2.0 6.0 0.00 0.00 0.00 70 1015.6
20260831170035 84 92 2.0 7.0 0.00 0.00 0.00 69 1015.6
20260831164532 84 78 2.0 5.0 0.00 0.00 0.00 68 1015.7
20260831163018 85 82 3.0 7.0 0.00 0.00 0.00 68 1015.7
20260831161529 85 107 3.0 8.0 0.00 0.00 0.00 67 1015.8
20260831160041 85 87 2.0 9.0 0.00 0.00 0.00 66 1015.7
20260831154556 86 76 2.0 7.0 0.00 0.00 0.00 62 1015.6
20260831153106 86 82 2.0 7.0 0.00 0.00 0.00 61 1015.7
20260831151503 86 64 2.0 7.0 0.00 0.00 0.00 60 1015.5
20260831150005 86 85 2.0 7.0 0.00 0.00 0.00 60 1015.6
20260831144507 86 114 3.0 7.0 0.00 0.00 0.00 60 1015.6
20260831143012 87 96 4.0 8.0 0.00 0.00 0.00 61 1015.5
20260831141511 87 92 4.0 8.0 0.00 0.00 0.00 60 1015.4
20260831140008 87 109 4.0 9.0 0.00 0.00 0.00 60 1015.4
20260831134508 87 84 4.0 10.0 0.00 0.00 0.00 59 1015.4
20260831133009 87 88 4.0 9.0 0.00 0.00 0.00 59 1015.5
20260831131516 87 81 3.0 8.0 0.00 0.00 0.00 57 1015.6
20260831130004 87 85 4.0 8.0 0.00 0.00 0.00 57 1015.6
20260831124505 87 95 5.0 9.0 0.00 0.00 0.00 57 1015.6
20260831123009 87 62 3.0 9.0 0.00 0.00 0.00 56 1015.8
20260831121522 87 74 4.0 9.0 0.00 0.00 0.00 58 1015.9
20260831120040 86 103 5.0 9.0 0.00 0.00 0.00 63 1015.9
20260831114503 87 80 4.0 9.0 0.00 0.00 0.00 64 1016.0
20260831113005 86 51 4.0 9.0 0.00 0.00 0.00 66 1015.9
20260831111510 86 105 4.0 10.0 0.00 0.00 0.00 67 1015.8
20260831110018 86 74 4.0 8.0 0.00 0.00 0.00 68 1016.0
20260831104535 86 110 4.0 10.0 0.00 0.00 0.00 69 1016.1
20260831103004 86 74 3.0 7.0 0.00 0.00 0.00 69 1016.1
20260831101518 86 9 2.0 9.0 0.00 0.00 0.00 70 1016.1
20260831100023 85 84 4.0 8.0 0.00 0.00 0.00 72 1016.0
20260831094521 85 94 4.0 8.0 0.00 0.00 0.00 72 1015.9
20260831093030 86 91 3.0 7.0 0.00 0.00 0.00 71 1015.8
20260831091506 86 219 2.0 6.0 0.00 0.00 0.00 70 1015.9
20260831090010 85 59 2.0 7.0 0.00 0.00 0.00 72 1015.8
20260831084518 85 155 1.0 7.0 0.00 0.00 0.00 71 1015.8
20260831083025 84 102 2.0 6.0 0.00 0.00 0.00 71 1015.7
20260831081539 84 74 2.0 6.0 0.00 0.00 0.00 73 1015.6
20260831080008 84 74 1.0 6.0 0.00 0.00 0.00 73 1015.5
20260831074517 83 108 1.0 7.0 0.00 0.00 0.00 73 1015.3
20260831073023 83 53 1.0 7.0 0.00 0.00 0.00 74 1015.3
20260831071529 83 80 3.0 7.0 0.00 0.00 0.00 74 1015.1
20260831070048 84 96 4.0 8.0 0.00 0.00 0.00 73 1014.9
20260831064512 84 70 1.0 6.0 0.00 0.00 0.00 72 1014.9
20260831063020 85 110 2.0 6.0 0.00 0.00 0.00 72 1014.8
20260831061504 84 85 1.0 4.0 0.00 0.00 0.00 72 1014.9